Regional Weather Roundup
Issued by NWS Cleveland, OH

Home | Current Version | Previous Version | Graphics & Text | Print | Product List | Glossary On
Versions: 1 2 3 4 5 6 7 8 9 10 11 12 13 14 15 16 17 18 19 20 21 22 23 24 25 26 27 28 29 30 31 32 33 34 35 36 37 38 39 40 41 42 43 44 45 46 47 48 49 50
000
ASUS41 KCLE 302210
RWRCLE
OHIO REGIONAL WEATHER ROUNDUP
NATIONAL WEATHER SERVICE WILMINGTON, OH
600 PM EDT TUE SEP 30 2014

NOTE: "FAIR" INDICATES FEW OR NO CLOUDS BELOW 12,000 FEET WITH NO
SIGNIFICANT WEATHER AND/OR OBSTRUCTIONS TO VISIBILITY.

OHZ001>008-015>018-024>027-034-035-043-044-302300-
   NORTHWEST OHIO

CITY           SKY/WX    TMP DP  RH WIND       PRES   REMARKS
DEFIANCE       CLOUDY    58  47  66 N6        29.98S
FINDLAY        CLOUDY    59  49  69 N7        29.96R
TOLEDO EXPRESS CLOUDY    57  48  72 N6        29.97S
TOLEDO METCALF CLOUDY    59  49  69 N5        29.97F
LIMA           CLOUDY    58  48  69 NW6       29.97R
$$

OHZ009>014-019>023-028>033-038-089-302300-
   NORTHEAST OHIO

CITY           SKY/WX    TMP DP  RH WIND       PRES   REMARKS
CLE-HOPKINS    PTSUNNY   60  53  77 N8        29.96S
CLE-LAKEFRONT  CLOUDY    60  53  77 N10       29.94R
CUY CO. ARPT   CLOUDY    61  57  88 N12       29.95R
LORAIN-ELYRIA  CLOUDY    62  52  69 N6        29.96R
ASHTABULA      CLOUDY    62  56  80 NW10      29.94R
AKRON-CANTON   PTSUNNY   63  54  72 N13       29.92S
WOOSTER        PTSUNNY   62  52  69 N10       29.94R
MANSFIELD      CLOUDY    59  53  80 N9        29.94S
YOUNGSTOWN     PTSUNNY   61  55  81 N12       29.92R
$$

OHZ042-051>053-060>062-070>072-077>081-302300-
  SOUTHWEST OHIO

CITY           SKY/WX    TMP DP  RH WIND       PRES   REMARKS
CINC-COVINGTON PTSUNNY   73  58  59 N10       29.90S
CINC-LUNKEN    PTSUNNY   70  59  68 NE12      29.91R
HAMILTON       PTSUNNY   67  58  72 N7        29.94R
DAYTON         MOSUNNY   64  50  60 N10       29.95S
WRIGHT-PAT AFB PTSUNNY   63  52  67 NE9       29.94S
DAYTON GENERAL CLOUDY    62  56  80 N9        29.93S
WILMINGTON     CLOUDY    62  56  80 N13       29.93R
$$

OHZ036-037-039>041-045>050-054>059-063>069-073>076-082>088-302300-
  CENTRAL AND SOUTHEAST OHIO

CITY           SKY/WX    TMP DP  RH WIND       PRES   REMARKS
COLUMBUS       PTSUNNY   59  53  80 N10       29.93S
OSU AIRPORT    PTSUNNY   58  50  75 NW10      29.94S
BOLTON FIELD   CLOUDY    59  55  88 N10       29.94S
RICKENBACK AFB CLOUDY    60  55  83 N10       29.93R
NEWARK         PTSUNNY   63  57  81 NW7       29.91F
MARION         PTSUNNY   61  50  67 NW7       29.95R
LANCASTER      CLOUDY    61  57  87 N9        29.93R FOG
ZANESVILLE     CLOUDY    62  58  86 NW9       29.91R
NEW PHILLY     CLOUDY    65  57  75 NW12      29.91R
$$



USA.gov is the U.S. government's official web portal to all federal, state and local government web resources and services.